This is the latest recevied weather packets stored in our database for station/object EA6AMI-5. If no packets are shown the sender has not sent any weather packets the latest 10 day(s).
| Time | Temp. | Humidity | Pressure | Rain* | Wind** | Luminosity | Snow |
|---|---|---|---|---|---|---|---|
| 1777382284 | 24.44° C | 44% | 1013.6 hPa | 0 mm | - | 728 W/m² | - |
| 1777381744 | 23.89° C | 44% | 1013.5 hPa | 0 mm | - | 745 W/m² | - |
| 1777381203 | 23.89° C | 44% | 1013.4 hPa | 0 mm | - | 768 W/m² | - |
| 1777380843 | 24.44° C | 44% | 1013.5 hPa | 0 mm | - | 762 W/m² | - |
| 1777380304 | 23.89° C | 45% | 1013.4 hPa | 0 mm | - | 760 W/m² | - |
| 1777379763 | 24.44° C | 43% | 1013.7 hPa | 0 mm | - | 729 W/m² | - |
| 1777379223 | 24.44° C | 42% | 1013.6 hPa | 0 mm | - | 752 W/m² | - |
| 1777378683 | 24.44° C | 42% | 1013.7 hPa | 0 mm | - | 807 W/m² | - |
| 1777378144 | 23.89° C | 43% | 1013.4 hPa | 0 mm | - | 810 W/m² | - |
| 1777377603 | 24.44° C | 42% | 1013.7 hPa | 0 mm | - | 815 W/m² | - |
| 1777377243 | 24.44° C | 41% | 1013.5 hPa | 0 mm | - | 807 W/m² | - |
| 1777376704 | 23.89° C | 42% | 1013.7 hPa | 0 mm | - | 814 W/m² | - |
| 1777376164 | 24.44° C | 40% | 1013.9 hPa | 0 mm | - | 811 W/m² | - |
| 1777375624 | 24.44° C | 37% | 1013.7 hPa | 0 mm | - | 808 W/m² | - |
| 1777375084 | 24.44° C | 36% | 1013.9 hPa | 0 mm | - | 801 W/m² | - |
| 1777374543 | 23.89° C | 38% | 1014.1 hPa | 0 mm | - | 793 W/m² | - |
| 1777374006 | 23.89° C | 37% | 1014.2 hPa | 0 mm | - | 785 W/m² | - |
| 1777373644 | 23.33° C | 37% | 1014.3 hPa | 0 mm | - | 779 W/m² | - |
| 1777373103 | 23.33° C | 38% | 1014.3 hPa | 0 mm | - | 769 W/m² | - |
| 1777372564 | 23.33° C | 37% | 1014.3 hPa | 0 mm | - | 767 W/m² | - |
| 1777372024 | 23.33° C | 37% | 1014.5 hPa | 0 mm | - | 759 W/m² | - |
| 1777371484 | 22.78° C | 37% | 1014.4 hPa | 0 mm | - | 746 W/m² | - |
| 1777370943 | 22.78° C | 37% | 1014.6 hPa | 0 mm | - | 735 W/m² | - |
| 1777370403 | 22.78° C | 36% | 1014.4 hPa | 0 mm | - | 723 W/m² | - |
| 1777370044 | 22.78° C | 36% | 1014.5 hPa | 0 mm | - | 710 W/m² | - |
* Rain latest hour (hover to see other rain measurements)
** Current wind speed in m/s (hover to see current wind gust speed)